www.pogodaiklimat.ru

Погода и климат >> Архив погоды >> Россия >> Хабаровский край >> Аян


АРХИВ ПОГОДЫ в Аяне

Время (UTC), дата Ветер
(напр.,м/с)
 
Видим.   Явления Облачность Т
(С)
Тd
(С)
f
(%)
Тe
(С)
Тes
(С)
Комфортность P
(гПа)
Po
(гПа)
Тmin
(С)
Tmax
(С)
R
(мм)
R24
(мм)
S
(см)
12 17.01 С 2 50 км 10/0
[Cs]
-15.7 -24.9 45 -21 -21 1010.5 1009.7
15 17.01 штиль 0 50 км 10/0
[Ci fib]
-19.1 -26.3 53 -19 -19 1009.9 1009.1
18 17.01 С 1 50 км 8/0
[Ci fib]
-20.6 -25.4 65 -24 -24 1009.3 1008.5
21 17.01 С 3 50 км 5/0
[Ci fib]
-20.9 -25.0 70 -29 -29 1009.7 1008.9 -22.1 83
00 18.01 С 2 50 км 4/0
[Ci fib]
-19.5 -23.2 72 -25 -25 1010.4 1009.6 -22.2
03 18.01 ЮЗ 2 50 км 10/0
[Ci fib]
-10.2 -24.6 30 -14 -13 1009.9 1009.1
06 18.01 Ю 2 50 км 8/0
[Ac lent Ci fib]
-11.6 -24.7 33 -16 -16 1010.3 1009.5
09 18.01 З 2 50 км 6/0
[Ac lent Ci fib]
-13.4 -25.9 34 -18 -18 1011.3 1010.5 -9.6
12 18.01 ЮЗ 1 50 км ясно -13.8 -25.4 37 -16 -16 1012.3 1011.5
15 18.01 С 1 50 км 6/0
[Ci sp]
-15.1 -25.3 41 -18 -18 1012.8 1012.0
18 18.01 СВ 1 50 км 8/0
[Ci fib]
-16.3 -26.9 40 -19 -19 1013.6 1012.8
21 18.01 В 2 50 км ясно -16.5 -27.3 39 -22 -22 1014.4 1013.5 -16.6 79
00 19.01 ЮВ 1 50 км 1/0
[Ci fib]
-15.9 -26.8 39 -19 -18 1015.1 1014.3
03 19.01 СЗ 1 50 км 3/0
[Ci fib]
-13.5 -26.3 33 -16 -14 1015.3 1014.5
06 19.01 ЮЗ 1 50 км ясно -14.4 -26.2 36 -17 -17 1015.7 1014.9
09 19.01 Ю 2 50 км ясно -15.9 -26.7 39 -21 -21 1016.4 1015.6 -12.7
12 19.01 СВ 1 50 км ясно -16.2 -26.7 40 -19 -19 1016.0 1015.2
15 19.01 Ю 1 50 км ясно -16.3 -26.8 40 -19 -19 1015.2 1014.4
18 19.01 З 1 50 км ясно -16.2 -27.0 39 -19 -19 1014.1 1013.3
21 19.01 С 1 50 км ясно -20.5 -27.3 54 -24 -24 1012.3 1011.4 -20.5 75
00 20.01 штиль 0 50 км ясно -19.1 -27.1 49 -19 -19 1010.6 1009.8 -22.1
03 20.01 ЮЗ 1 50 км ясно -12.5 -27.0 29 -15 -13 1008.3 1007.5
06 20.01 Ю 2 50 км ясно -14.0 -28.3 29 -19 -19 1006.9 1006.1
09 20.01 Ю 2 50 км ясно -15.4 -30.5 26 -20 -20 1006.2 1005.4 -12.2
12 20.01 С 1 50 км ясно -20.7 -28.9 48 -24 -24 1005.4 1004.6
15 20.01 С 2 50 км 10/0
[Cs]
-23.6 -28.4 65 -30 -30 1004.8 1003.9
18 20.01 С 2 50 км 10/0
[Cs]
-20.8 -26.5 60 -27 -27 1003.2 1002.4
21 20.01 С 1 50 км 10/0
[Cs]
-18.0 -23.9 60 -21 -21 1002.1 1001.3 -23.6 73
00 21.01 С 1 50 км 10/0
[As op]
-14.5 -20.5 60 -17 -17 1002.3 1001.5
03 21.01 В 1 10 км слаб. снег 10/0
[As op]
-9.1 -18.5 46 -11 -11 1000.5 999.8
06 21.01 В 1 10 км слаб. снег 10/0
[As op]
-9.1 -13.4 71 -11 -11 1000.6 999.8
09 21.01 штиль 0 10 км слаб. снег 10/0
[As op]
-10.0 -13.5 76 -10 -10 1001.4 1000.6 -8.9 0.4
12 21.01 Ю 1 4000 м слаб. ливневой снег 10/8 600 м
[Cb cap As op]
-9.2 -11.6 83 -12 -12 1001.1 1000.4
15 21.01 штиль 0 10 км слаб. снег 10/0
[As op]
-8.8 -11.7 79 -9 -9 1000.2 999.4
18 21.01 С 2 10 км слаб. снег 10/0
[As op]
-5.5 -10.8 66 -10 -10 1000.0 999.2
21 21.01 С 3 10 км слаб. снег 10/0
[As op]
-4.9 -7.5 82 -10 -10 1001.3 1000.6 -10.1 2 77
00 22.01 С 5-13
{14}
10 км снег {метель} 10/0
[As op]
-4.0 -4.9 93 -11 -11 1002.6 1001.9
03 22.01 СВ 11-18
{18}
2000 м сильн. снег {метель} 10/0
[As op]
-2.4 -3.2 94 -12 -12 1004.1 1003.3
06 22.01 СВ 10-15
{18}
2000 м снег {метель} 10/0
[As op]
-2.2 -3.1 94 -11 -11 1006.3 1005.5
09 22.01 СВ 9-15
{16}
20 км сильный позёмок 10/0
[As op]
-2.2 -3.1 94 -11 -11 1008.7 1008.0 -2.2 10
12 22.01 СВ 8-13
{15}
4000 м слаб. ливневой снег 10/10 300 м
[Cb cap]
-2.4 -3.3 94 -11 -11 1010.2 1009.5
15 22.01 СВ 8-12
{15}
2000 м ливневой снег {метель} 10/10 300 м
[Cb cap]
-2.4 -3.3 94 -11 -11 1011.5 1010.7
18 22.01 С 6-11
{15}
2000 м ливневой снег {метель} 10/10 300 м
[Cb cap]
-2.8 -3.7 94 -10 -10 1012.7 1011.9
21 22.01 С 6-13
{13}
4000 м снег {ливн. осадки} 10/10 300 м
[Frnb Ns]
-3.2 -4.0 94 -11 -11 1014.0 1013.2 -3.2 9 94
00 23.01 С 6-11
{13}
2000 м снег {ливн. осадки} 10/10 300 м
[Frnb Ns]
-3.4 -4.3 93 -11 -11 1015.4 1014.6 -3.4
03 23.01 С 6
{12}
10 км слаб. снег {метель} 10/4 600 м
[St As op]
-3.2 -4.8 89 -11 -11 1016.4 1015.6
06 23.01 С 3
{11}
50 км {снег, метель} 3/0
[Ci fib]
-3.5 -8.3 69 -8 -8 1016.9 1016.1
09 23.01 СВ 1 50 км 9/0
[Ac cast]
-7.6 -10.0 83 -10 -10 1017.7 1016.9 -2.7 4
12 23.01 С 1 50 км 4/0
[Ac trans]
-13.0 -14.3 90 -15 -15 1017.8 1017.0
15 23.01 С 1 50 км 6/0
[Ac lent]
-11.5 -13.4 86 -14 -14 1018.0 1017.2
18 23.01 С 1 50 км 10/0
[Cs]
-12.3 -14.8 82 -15 -15 1018.3 1017.5
21 23.01 С 1 50 км 6/0
[Cs]
-13.4 -16.1 80 -16 -16 1018.3 1017.5 -13.4 93
00 24.01 ЮЗ 2 50 км 10/0
[Ci fib]
-8.0 -17.4 47 -12 -12 1018.7 1017.9
03 24.01 Ю 2 50 км 10/0
[Ci fib]
-7.0 -17.6 43 -11 -10 1019.4 1018.6
06 24.01 ЮЗ 2 50 км 8/0
[Ci fib]
-9.0 -18.9 44 -13 -13 1020.4 1019.7
09 24.01 Ю 2 50 км 8/0
[Ci fib]
-9.9 -19.2 47 -14 -14 1020.7 1020.0 -6.7

 

Местоположение метеостанции Аян (Хабаровский край, Россия): широта 56.45 долгота 138.10 высота над уровнем моря 8 м.

В архиве по умолчанию представлена погода в Аяне за последнюю неделю. Архивные данные за месяц целиком и за предыдущие месяцы, начиная с января 2011 года, Вы можете получить, выбрав интересующий диапазон дат из раскрывающегося списка и нажав кнопку "Ввод!".


*Определитесь, кто Вы:
робот инопланетянин человек

Внимание! Время в таблицах - всемирное. Для получения местного времени необходимо прибавить поправку, которая равна 10 ч.

Смотрите также архив погоды в соседних городах и на ближайших метеорологических станциях:

Погода в Нелькане (Хабаровский край, Россия) (180 км)
Погода в Большом Шантаре (Хабаровский край, Россия) (184 км)
Погода в Джане (Хабаровский край, Россия) (257 км)
Погода в Чумикане (Хабаровский край, Россия) (261 км)
Погода в Литке (Хабаровский край, Россия) (311 км)
Погода в Удском (Хабаровский край, Россия) (318 км)
Погода в Улье (Хабаровский край, Россия) (342 км)
Погода в Усть-Юдоме (Якутия, Россия) (352 км)
Погода в Ныврово (Сахалинская область, Россия) (369 км)
Погода в Югоренке (Якутия, Россия) (370 км)

Пояснения к столбцам:

Ветер - указаны скорость ветра в м/с - средняя за 10 мин, порывы в срок и между сроками (в фигурных скобках) и направление, откуда дует ветер: С - северный, СВ - северо-восточный, В - восточный, ЮВ - юго-восточный, Ю - южный, ЮЗ - юго-западный, З - западный, СЗ - северо-западный.
Видимость - горизонтальная дальность видимости в метрах или километрах. При видимости от 1 до 10 км при отсутствии осадков обычно наблюдается дымка, при ухудшении видимости до 1 км и менее - туман. В сухую погоду видимость может ухудшаться дымом, пылью или мглою.
Явления - указаны атмосферные явления, наблюдавшиеся в срок или в последний час перед сроком; фигурными скобками обозначены явления, наблюдавшиеся между сроками (за 1-3 часа до срока); квадратными скобками обозначены град или гололедные отложения с указанием их диаметра в мм.
Облачность - указаны через наклонную черту общая и нижняя облачность в баллах и высота нижней границы облаков в метрах; квадратными скобками обозначены формы облаков: Ci - перистые, Cs - перисто-слоистые, Cc - перисто-кучевые, Ac - высококучевые, As - высокослоистые, Sc - слоисто-кучевые, Ns - слоисто-дождевые, Cu - кучевые, Cb - кучево-дождевые. Подробнее классификацию облаков см. в Атласе облаков (PDF).
T - Температура воздуха - температура, измеренная на высоте 2 м над землей.
Td - Температура точки росы - температура, при понижении до которой содержащийся в воздухе водяной пар достигнет насыщения.
f - Относительная влажность воздуха - влажноcть воздуха, измеренная на высоте 2 м над землей.
Te - Эффективная температура - температура, которую ощущает одетый по сезону человек в тени. Характеристика душности погоды. При расчете учитывается влияние влажности воздуха и скорости ветра на теплоощущения человека.
Tes - Эффективная температура на солнце - температура, которую ощущает человек, с поправкой на солнечный нагрев. Характеристика знойности погоды. Зависит от высоты солнца над горизонтом, облачности и скорости ветра. Ночью, в пасмурную погоду, а также при ветре 12 м/с и более поправка равна нулю.
P - Атмосферное давление - приведенное к уровню моря атмосферное давление.
Po - Атмосферное давление - измеренное на уровне метеостанции атмосферное давление.
Tmin - Минимальная температура - минимум температуры воздуха на высоте 2 м над землей.
Tmax - Максимальная температура - максимум температуры воздуха на высоте 2 м над землей.
R - Количество осадков - Количество выпавших осадков за период времени, мм. При наведении курсора мыши на число - период времени, за который выпало указанное количество осадков.
R24 - Количество осадков - Количество выпавших осадков за 24 часа, мм.
S - Снежный покров - Высота снежного покрова, см. При наведении курсора мыши на число - состояние снежного покрова и степень покрытия местности в баллах.